Terminal Aerodrome Forecast
Issued by NWS Spokane, WA

Home | Current Version | Previous Version | Text Only | Print | Product List | Glossary On
Versions: 1 2 3 4 5 6 7 8 9 10 11 12 13 14 15 16 17 18 19 20 21 22 23 24 25 26 27 28 29 30 31 32 33 34 35 36 37 38 39
000
FTUS46 KOTX 112056 AAC
TAFGEG
TAF AMD
KGEG 112056Z 1121/1218 05010KT P6SM FEW080 OVC100
     FM120300 07004KT 1SM -RA BR OVC005
     FM120800 07004KT 1/4SM FG OVC001
     FM121200 10003KT 2SM -RA BR OVC003=

USA.gov is the U.S. government's official web portal to all federal, state and local government web resources and services.